User: anonymous   Login
Location: Unspecified
(0.0000°N, 0.0000°E)
Time: 14:02:02
(UTC+00:00)
Language:

S-NET C - Orbit

View from above orbital plane
View from above orbital plane
View from above satellite
View from above satellite

Ground track
Ground track

The orbit data is extracted from the following two-line orbital elements,

1 43189U 18014K   24053.67455201  .00005607  00000-0  42021-3 0  9993
2 43189  97.6054 317.5872 0013871  31.4094 328.7957 15.03005864329694
Epoch (UTC): 22 February 2024 16:11:21
Eccentricity: 0.0013871
inclination: 97.6054°
perigee height: 548 km
apogee height: 567 km
right ascension of ascending node: 317.5872°
argument of perigee: 31.4094°
revolutions per day: 15.03005864
mean anomaly at epoch: 328.7957°
orbit number at epoch: 32969

The dashed part of the orbit path shows where the satellite is in the earth's shadow,  

DLR